TimeEST,TemperatureF,Dew PointF,Humidity,Sea Level PressureIn,VisibilityMPH,Wind Direction,Wind SpeedMPH,Gust SpeedMPH,PrecipitationIn,Events,Conditions,WindDirDegrees,DateUTC
6:00 AM,77.0,69.8,78,30.01,6.2,ENE,17.3,-,N/A,,Partly Cloudy,70,2012-12-04 11:00:00
7:00 AM,77,70,73,30.03,6,ENE,18.4,,,,,70,2012-12-04 12:00:00
7:00 AM,77.0,69.8,78,30.01,6.2,ENE,18.4,-,N/A,,Partly Cloudy,70,2012-12-04 12:00:00
8:00 AM,78.8,69.8,74,30.04,6.2,ENE,17.3,-,N/A,,Partly Cloudy,70,2012-12-04 13:00:00
9:00 AM,80.6,71.6,74,30.06,6.2,ENE,18.4,-,N/A,,Partly Cloudy,70,2012-12-04 14:00:00
10:00 AM,80.6,71.6,74,30.06,6.2,ENE,17.3,-,N/A,,Partly Cloudy,70,2012-12-04 15:00:00
11:00 AM,80.6,71.6,74,30.06,6.2,ENE,18.4,-,N/A,,Scattered Clouds,70,2012-12-04 16:00:00
12:00 PM,82.4,71.6,70,30.06,6.2,ENE,18.4,-,N/A,,Scattered Clouds,70,2012-12-04 17:00:00
1:00 PM,81,72,68,30.04,6,ENE,17.3,,,,,70,2012-12-04 18:00:00
1:00 PM,80.6,71.6,74,30.04,6.2,ENE,17.3,-,N/A,,Scattered Clouds,70,2012-12-04 18:00:00
2:00 PM,82.4,71.6,70,29.98,6.2,ENE,18.4,-,N/A,,Partly Cloudy,70,2012-12-04 19:00:00
3:00 PM,82.4,71.6,70,29.98,6.2,ENE,17.3,-,N/A,,Scattered Clouds,60,2012-12-04 20:00:00
4:00 PM,80.6,71.6,74,29.98,6.2,ENE,17.3,-,N/A,,Scattered Clouds,70,2012-12-04 21:00:00
5:00 PM,80.6,71.6,74,29.98,6.2,ENE,16.1,-,N/A,,Scattered Clouds,70,2012-12-04 22:00:00
6:00 PM,78.8,71.6,78,30.01,6.2,ENE,13.8,-,N/A,,Partly Cloudy,70,2012-12-04 23:00:00
7:00 PM,78,72,77,30.01,6,ENE,13.8,,,,Scattered Clouds,70,2012-12-05 00:00:00
7:00 PM,78.8,71.6,78,30.01,6.2,ENE,13.8,-,N/A,,Partly Cloudy,70,2012-12-05 00:00:00
8:00 PM,78.8,71.6,78,30.04,6.2,ENE,12.7,-,N/A,,Partly Cloudy,70,2012-12-05 01:00:00
9:00 PM,77.0,71.6,83,30.04,6.2,ENE,10.4,-,N/A,,Partly Cloudy,70,2012-12-05 02:00:00
10:00 PM,77.0,71.6,83,30.04,6.2,East,8.1,-,N/A,,Partly Cloudy,80,2012-12-05 03:00:00